x

Buoy F01 - West Penobscot Bay (44033) Wave Buoy

11:04 - Mon 30th May 2016 All times are EDT. -4 hours from GMT.

  • Sig Wave height 1.0ft
  • Peak Period 5s
  • Wind
    7mph, 9mph gusts
  • Sea Temp 57°f
  • Aire Temp 56°f
  • Sea Pressure 1009.3mb
  • Buoy F01 - West Penobscot Bay
  • Buoy F01 - West Penobscot Bay

More Historic Weather Station data

Upgrade to MSW Pro to gain access to the past 30 days of data for over 8000 Wavebouys and Weather Stations around the globe.

Join Pro

Comparision Forecast

View Surf forecast
   
lun 05/30 11:04 1ft 5s 7 9 mph 1009.3mb 57f 56f
10:04 1ft 5s 9
mph
1009.5mb 52f 54f
9:04 1.3ft 6s 9
mph
1009.6mb 53f 54f
8:04 1.3ft 5s 9 11 mph 1009.7mb 54f 53f
7:04 1.3ft 5s 9 11 mph 1009.7mb 54f 53f
6:04 1.3ft 5s 13 16 mph 1009.9mb 54f 53f
5:04 1.6ft 8s 13 16 mph 1010.2mb 55f 54f
4:04 1.3ft 5s 13 16 mph 1010.6mb 55f 54f
3:04 1.6ft 5s 13 16 mph 1011.1mb 54f 54f
2:04 1.6ft 5s 13 16 mph 1012mb 54f 54f
1:04 1.3ft 5s 13 16 mph 1012.6mb 54f 54f
12:04 1.3ft 5s 9
mph
1013.4mb 55f 54f
11:04 1.3ft 5s 13 16 mph 1013.8mb 53f 53f
10:04 1.6ft 5s  -  mph - 51f -
9:04 1.6ft 5s 7 9 mph 1014.9mb 54f 51f
8:04 1.6ft 6s 4 7 mph 1015.2mb 54f 50f
7:04 1.6ft 6s 4 7 mph 1015.6mb 53f 51f
6:04 1.6ft 6s 2 7 mph 1015.8mb 53f 50f
5:04 2ft 6s 4
mph
1015.9mb 55f 49f
4:04 1.6ft 6s 4
mph
1016.6mb 54f 49f
3:04 2ft 5s 7
mph
1017.4mb 52f 49f
2:04 2.5ft 6s 7 9 mph 1018.4mb 55f 50f
1:04 2.5ft 6s 9 11 mph 1019.2mb 55f 50f
dom 05/29 11:04 2.5ft 6s 7 9 mph 1020.8mb 57f 49f
10:04 2ft 6s 9
mph
1021.3mb 55f 49f
9:04 2.5ft 6s 9 11 mph 1021.7mb 53f 49f
8:04 2ft 5s 11 13 mph 1021.8mb 54f 49f
7:04 2ft 5s 13 16 mph 1021.7mb 53f 50f
6:04 2ft 5s 13 16 mph 1021.9mb 53f 50f
5:04 2ft 5s 13
mph
1022.6mb 51f 51f
4:04 2ft 5s 13 16 mph 1022.8mb 49f 51f
3:04 1.6ft 5s 13 16 mph 1023.5mb 50f 51f
2:04 2ft 5s 13 16 mph 1023.8mb 53f 53f
1:04 1.6ft 5s 11 13 mph 1024.2mb 55f 54f
12:04 2ft 5s 7 9 mph 1024.5mb 56f 56f
11:04 1.6ft 5s 7 9 mph 1024.7mb 56f 54f
10:04 1.6ft 5s 7 9 mph 1024.9mb 55f 54f
9:04 1ft 5s 7
mph
1024.6mb 54f 54f
8:04 1ft 5s 7 9 mph 1024mb 53f 53f
7:04 1ft 6s 9 11 mph 1024mb 52f 53f
6:04 1.3ft 6s 9
mph
1023.2mb 51f 53f
5:04 1.6ft 4s 7 9 mph 1022.9mb 49f 52f
4:04 1.6ft 3s 7 11 mph 1022.2mb 49f 52f
3:04 1.3ft 3s 13 18 mph 1022.2mb 49f 53f
2:04 1.3ft 3s 16 18 mph 1022.1mb 52f 54f
1:04 1.3ft 2s 13 18 mph 1022.1mb 56f 55f
12:04 1.6ft 5s 16 20 mph 1021.6mb 57f 57f
sáb 05/28 11:04 1.3ft 5s 7 9 mph 1020.9mb 58f 57f
10:04 1.3ft 5s 7 9 mph 1020.3mb 54f 57f
9:04 1.3ft 5s 7
mph
1019.8mb 56f 58f
8:04 1.3ft 6s 4 7 mph 1019.4mb 57f 56f
7:04 1.3ft 5s 7 9 mph 1018.7mb 57f 56f
6:04 1.3ft 5s 9 11 mph 1017.8mb 57f 57f
5:04 1.3ft 5s 7
mph
1017.1mb 55f 58f
4:04 1.6ft 5s 4 7 mph 1016.7mb 57f 57f
3:04 1.6ft 5s 7
mph
1016.4mb 53f 55f
2:04 1.6ft 5s 9 11 mph 1016.2mb 57f 56f
1:04 1.6ft 5s 9 11 mph 1016.4mb 57f 56f
12:04 2ft 5s 7 9 mph 1016.7mb 57f 56f
11:04 2ft 5s 4
mph
1016.5mb 56f 56f
10:04 2ft 5s 7
mph
1016.2mb 56f 56f
9:04 2ft 5s 4
mph
1016.4mb 56f 55f
8:04 1.3ft 5s  -  mph - 53f -
7:04 1.3ft 5s 7 9 mph 1015.7mb 53f 52f
6:04 1.3ft 5s 4
mph
1015.3mb 54f 51f
5:04 1.3ft 5s 2 4 mph 1015.1mb 53f 51f
4:04 1.6ft 5s 4 7 mph 1014.7mb 55f 51f
3:04 1.3ft 5s 2 4 mph 1014.8mb 55f 51f
2:04 1.3ft 5s 9 11 mph 1015.4mb 54f 52f
1:04 1.6ft 5s 7
mph
1015.6mb 54f 51f
12:04 2ft 5s 4 7 mph 1015mb 54f 51f
vie 05/27 11:04 2ft 5s 2
mph
1015.7mb 54f 51f
10:04 1.6ft 5s 2
mph
1016mb 54f 51f
9:04 1.6ft 5s 7
mph
1015.9mb 53f 51f
8:04 1.6ft 5s 7
mph
1016.1mb 52f 50f
7:04 1.6ft 5s 7
mph
1016.5mb 53f 50f
6:04 1.6ft 5s 7 9 mph 1016.8mb 51f 50f
5:04 1.6ft 4s 11 13 mph 1016.9mb 51f 50f
4:04 1.6ft 6s 11
mph
1017.6mb 50f 50f
3:04 2ft 8s 13 18 mph 1018.1mb 49f 50f
2:04 1.6ft 6s 16 18 mph 1019mb 48f 50f
1:04 1.6ft 6s 13 16 mph 1020mb 50f 51f
12:04 2ft 6s 13 16 mph 1020.2mb 52f 51f
11:04 2ft 8s 9 13 mph 1021.1mb 52f 52f
10:04 2ft 4s 9 13 mph 1021.5mb 52f 51f
9:04 1.3ft 5s 13 16 mph 1021.3mb 52f 51f
8:04 2ft 8s 11 16 mph 1021.6mb 51f 51f
7:04 1.6ft 6s 9 11 mph 1021.5mb 52f 50f
6:04 1.6ft 6s 11 13 mph 1021.3mb 49f 51f
5:04 1.3ft 3s 11 13 mph 1021.1mb 49f 51f